Overview Statistics Trail Chart Weather Telemetry Raw packets
 

This is the latest recevied weather packets stored in our database for station/object VK4TW-13. If no packets are shown the sender has not sent any weather packets the latest 10 day(s).

<< 18 19 20 21 22 23 24 >>
Time Temp. Humidity Pressure Rain* Wind** Luminosity Snow
1788405571 28.33° C 99% 1019.7 hPa 0 mm - - -
1788405385 28.89° C 97% 1019.7 hPa 0 mm - - -
1788405204 28.89° C 98% 1019.7 hPa 0 mm - - -
1788404977 28.89° C 99% 1019.9 hPa 0 mm - - -
1788404528 29.44° C 99% 1019.8 hPa 0 mm - - -
1788403927 29.44° C 98% 1019.9 hPa 0 mm - - -
1788403507 29.44° C 98% 1020 hPa 0 mm - - -
1788402906 29.44° C 99% 1020.2 hPa 0 mm - - -
1788402305 29.44° C 99% 1020.4 hPa 0 mm - - -
1788402124 29.44° C 98% 1020.5 hPa 0 mm - - -
1788401689 29.44° C 95% 1020.6 hPa 0 mm - - -
1788401398 29.44° C 94% 1020.7 hPa 0 mm - - -
1788401024 30° C 94% 1020.8 hPa 0 mm - - -
1788400423 29.44° C 92% 1020.9 hPa 0 mm - - -
1788399822 29.44° C 90% 1021.2 hPa 0 mm - - -
1788399221 28.89° C 94% 1021.4 hPa 0 mm - - -
1788398620 28.89° C 95% 1021.6 hPa 0 mm - - -
1788398019 28.89° C 98% 1021.9 hPa 0 mm - - -
1788397418 28.33° C 100% 1022 hPa 0 mm - - -
1788396818 27.78° C 100% 1022.2 hPa 0 mm - - -
1788396271 27.22° C 100% 1022.4 hPa 0 mm - - -
1788395782 27.22° C 100% 1022.5 hPa 0 mm - - -
1788395182 26.67° C 100% 1022.6 hPa 0 mm - - -
1788394581 26.11° C 100% 1022.9 hPa 0 mm - - -
1788393980 26.11° C 100% 1023 hPa 0 mm - - -

* Rain since midnight (hover to see other rain measurements)
** Current wind speed in m/s (hover to see current wind gust speed)